Regional Weather Roundup
Issued by NWS Charleston, SC

Current Version | Previous Version | Graphics & Text | Print | Product List | Glossary On
Versions: 1 2 3 4 5 6 7 8 9 10 11 12 13 14 15 16 17 18 19 20 21 22 23 24 25 26 27 28 29 30 31 32 33 34 35 36 37 38 39 40 41 42 43 44 45 46 47 48 49 50
000
ASUS42 KCHS 210412
RWRCHS

REGIONAL WEATHER ROUNDUP
NATIONAL WEATHER SERVICE CHARLESTON SC
1200 AM EDT TUE APR 21 2015

NOTE: "FAIR" INDICATES FEW OR NO CLOUDS BELOW 12,000 FEET WITH NO
SIGNIFICANT WEATHER AND/OR OBSTRUCTIONS TO VISIBILITY.

NOT ALL STATIONS ARE QUALITY CONTROLLED BY THE NATIONAL
WEATHER SERVICE. USE DATA WITH CAUTION...ESPECIALLY
DEWPOINT OBSERVATIONS.

SCZ027-030-031-034>040-042>050-210500-
...SOUTHEAST SOUTH CAROLINA...

CITY           SKY/WX    TMP DP  RH WIND       PRES   REMARKS
N CHARLESTON   PTCLDY    70  58  65 SW12G22   29.83R
WATERFRONT PRK   N/A     70 N/A N/A SW8G14      N/A
MOUNT PLEASANT FAIR      70  59  68 CALM      29.83R
PINOPOLIS      NOT AVBL
MONCKS CORNER  FAIR      68  59  73 SW13G20   29.81S
SUMMERVILLE    FAIR      66  61  82 S8        29.83S
BEAUFORT MCAS  PTCLDY    68  59  73 SW16      29.85R VSB 1
BEAUFORT ARPT  FAIR      70  61  73 SW12G17   29.85R
HILTON HEAD IS MOCLDY    70  61  73 SW9       29.87R
WALTERBORO     CLEAR     64  59  82 SW9       29.84R
ALLENDALE      FAIR      64  61  88 CALM      29.82R

...SOUTHERN MIDLANDS AND PEE DEE...

CITY           SKY/WX    TMP DP  RH WIND       PRES   REMARKS
GEORGETOWN     NOT AVBL
KINGSTREE      NOT AVBL
ORANGEBURG     CLEAR     65  59  81 SW13      29.80R
BARNWELL       FAIR      66  61  82 SW8       29.81S
AIKEN          MOCLDY    63  57  82 W6        29.84R
MANNING        FAIR      66  59  77 SW10G17   29.79R
COLUMBIA       PTCLDY    68  59  73 SW13      29.77R
SUMTER         PTCLDY    66  61  85 SW14      29.74R
FLORENCE       CLEAR     67  62  84 S9        29.75S
MYRTLE BEACH   PTCLDY    70  63  78 S12       29.80S
N MYRTLE BEACH PTCLDY    68  63  84 SW15      29.78S

$$

GAZ063-065-086>088-099>101-113>116-118-119-134>141-150-210500-
...SOUTHEAST GEORGIA...

CITY           SKY/WX    TMP DP  RH WIND       PRES   REMARKS
SAVANNAH ARPT  PTCLDY    66  58  75 SW10      29.86R
HUNTER AAF     MOCLDY    66  61  84 SW6       29.85R
FORT STEWART   NOT AVBL
STATESBORO       N/A     65  61  88 SW7       29.85R
SYLVANIA       CLEAR     64  62  92 SW3       29.85R
CLAXTON        FAIR      64  63  94 CALM      29.86R

...CSRA...CENTRAL AND FAR SOUTHEAST GEORGIA...

CITY           SKY/WX    TMP DP  RH WIND       PRES   REMARKS
THOMSON        PTCLDY    68  58  70 CALM      29.88R
AUGUSTA-BUSH   PTCLDY    66  61  84 NW10      29.82R
AUGUSTA-DANIEL MOCLDY    67  60  78 VRB3      29.83R
SWAINSBORO     NOT AVBL
VIDALIA        CLEAR     63  63 100 SW5       29.86R
EASTMAN        FAIR      66  66 100 SW6       29.88R
HAZLEHURST     FAIR      66  65  97 SW5       29.86S
ALMA           MOCLDY    64  61  90 S7        29.88R
WAYCROSS       CLOUDY    67  66  97 SW8       29.89R
JESUP          MOCLDY    64  63  94 SW3       29.89R
BAXLEY         FAIR      64  63  94 SW7       29.87S
BRUNSWICK      PTCLDY    64  61  88 SW7       29.91R
SAINT SIMONS   PTCLDY    65  62  90 SW10      29.90R

$$

SCZ027-028-034-036>038-045-046-048>050-GAZ119-141-210500-
...LAKE AND SUPPLEMENTAL COASTAL OBSERVATIONS...

STATION/POSITION TIME  TEMP    WIND        PRES    WAVE   SWELL
                       AIR SEA DIR/SP/G            HT/PER HT/PER/DIR
                 (UTC) (F)     (DEG/KT/KT) (MB)    (FT/S) (FT/S/D)
UPR LAKE MARION  NOT AVBL
WINYAH BAY       NOT AVBL
LAKE MURRAY      0300   69     240/ 12/ 17 1007.1R
ACE BASIN NERRS  NOT AVBL
FORT PULASKI     0300   69 71  220/  9/ 17 1011.2R
SAPELO ISLAND    0300   67     220/ 11     1011.0S

$$

ANZ835-935-AMZ111-154-330-350-352-354-370-450-454-472-210500-
...C-MAN AND BUOY OBSERVATIONS...

STATION/POSITION TIME  TEMP    WIND        PRES    WAVE   SWELL
                       AIR SEA DIR/SP/G            HT/PER HT/PER/DIR
                 (UTC) (F)     (DEG/KT/KT) (MB)    (FT/S) (FT/S/D)
BUOY 41004       0350   72 74  250/ 19/ 23 1009.7R   4/ 5   2/ 8
BUOY 41008       0350   68 68  230/ 16/ 17 1011.8R   2/ 4   2/180/ 8
FOLLY BEACH CMAN 0300   69     230/ 11/ 15 1009.9R
CAPERS NEARSHORE NOT AVBL
FRIPP NEARSHORE  NOT AVBL


STATION/POSITION TIME  TEMP    WIND        PRES    WAVE   SWELL
                       AIR SEA DIR/SP/G            HT/PER HT/PER/DIR
                 (UTC) (F)     (DEG/KT/KT) (MB)    (FT/S) (FT/S/D)
5E ST. MARYS GA  0321      70                N/A     2/12   2/ 80/12
FRYING PAN BUOY  0350   73 73  200/ 17/ 21 1009.7F   5/ 6   2/120/ 9
BUOY 41025       0350   76 75  210/ 21/ 27 1007.9R   6/ 7   2/120/10
CAPE LOOKOUT NC  0300   68     250/ 10/ 12 1008.4R
BUOY 41002       0350   73 73  230/ 17/ 21 1013.4R   5/ 5   2/ 90/ 9
BUOY 41010       0320   73 78  350/ 14/ 17 1015.1R
ST AUGUSTINE FL  0400   65 63  210/  5/  7 1013.7R


$$



USA.gov is the U.S. government's official web portal to all federal, state and local government web resources and services.